"Pseudo-MPEC" for P11dz9X

Created 2021 Mar 1 15:07:07 UT using Find_Orb

Click here for an explanation of pseudo-MPECs

 
 Astrometry: 
     P11dz9X  C2021 02 17maAstrometry/,Ll_Pw(jH*redacted;OQFUQ%qQo1Iai(P\i9BoF51
     P11dz9X  C2021 02 17,\y]clickx'MF1#QW2-b84ZC)EFj4NuKq4m@tO?W'+'2bXCNf,@TF51
     P11dz9X  C2021 02 17@=]ed'lV%dEr*?here$w]$\efor6xw4L=tmq:explanationd.%NF51

Station data:
(F51) Pan-STARRS 1, Haleakala  (N20.707235 W156.255910)  US/Hawaii.
   Observers N. Primak, A. Schultz, S. Watters, J. Thiel, T. Goggia. Measurer
   PS1 Science Consortium. 1.8-m Ritchey-Chrétien + CCD.

Orbital elements:  P11dz9X
   Perihelion 2020 Dec 5.496329 +/- 90.9046 TT = 11:54:42 (JD 2459188.996329)
Epoch 2021 Feb 17.0 TT = JDT 2459262.5   Earth MOID: 0.0009   AutoNEOCP
M  69.13930905 +/- 86.656553        (J2000 ecliptic)
n   0.94062388 +/- 0.536595         Peri.  258.06136 +/- 75.128632
a   1.03163336 +/- 0.392334         Node   166.71404 +/- 32.457027
e   0.1281362 +/- 0.220874          Incl.    0.30937 +/- 41.976036
P   1.05/382.72d           H 29.9   G  0.15   U 12.3  SR
q 0.89944374 +/- 0.378946    Q 1.16382299 +/- 14.5778
From 3 observations 2021 Feb. 17 (36.9 min); mean residual 0".04
Residuals in arcseconds: 
210217 F51  .03+  .03-    210217 F51  .06-  .06+    210217 F51  .03+  .03-    

Ephemerides (geocentric):
Date (UTC) HH   RA              Dec         delta   r     elong  mag " sig PA
---- -- -- --  -------------   -----------  ------ ------ -----  --- ---- ---
2021 03 01 15  10 00 59.454   +11 13 18.26  .03759 1.0276 167.4 23.6  46d 178
2021 03 01 16  10 00 59.379   +11 13 48.24  .03768 1.0277 167.4 23.6  46d 178
2021 03 01 17  10 00 59.308   +11 14 18.06  .03776 1.0278 167.3 23.6  46d 178
2021 03 01 18  10 00 59.241   +11 14 47.74  .03785 1.0279 167.3 23.6  46d 178
2021 03 01 19  10 00 59.177   +11 15 17.26  .03794 1.0280 167.2 23.6  46d 178
2021 03 01 20  10 00 59.118   +11 15 46.63  .03803 1.0281 167.2 23.6  46d 178
2021 03 01 21  10 00 59.062   +11 16 15.84  .03812 1.0282 167.1 23.6  46d 178
2021 03 01 22  10 00 59.010   +11 16 44.91  .03820 1.0283 167.1 23.6  46d 178
2021 03 01 23  10 00 58.961   +11 17 13.83  .03829 1.0283 167.1 23.7  46d 178
2021 03 02 00  10 00 58.916   +11 17 42.60  .03838 1.0284 167.0 23.7  46d 178
2021 03 02 01  10 00 58.875   +11 18 11.22  .03847 1.0285 167.0 23.7  46d 178
2021 03 02 02  10 00 58.837   +11 18 39.70  .03855 1.0286 166.9 23.7  46d 178
2021 03 02 03  10 00 58.803   +11 19 08.03  .03864 1.0287 166.9 23.7  46d 178
2021 03 02 04  10 00 58.773   +11 19 36.22  .03873 1.0288 166.8 23.7  46d 178
2021 03 02 05  10 00 58.747   +11 20 04.26  .03882 1.0289 166.8 23.7  46d 178
2021 03 02 06  10 00 58.724   +11 20 32.16  .03891 1.0290 166.7 23.7  46d 178
2021 03 02 07  10 00 58.704   +11 20 59.91  .03899 1.0291 166.7 23.7  47d 178
2021 03 02 08  10 00 58.689   +11 21 27.53  .03908 1.0291 166.7 23.7  47d 178
2021 03 02 09  10 00 58.676   +11 21 55.00  .03917 1.0292 166.6 23.7  47d 178
2021 03 02 10  10 00 58.668   +11 22 22.34  .03926 1.0293 166.6 23.7  47d 178
2021 03 02 11  10 00 58.663   +11 22 49.53  .03935 1.0294 166.5 23.7  47d 178
2021 03 02 12  10 00 58.661   +11 23 16.59  .03943 1.0295 166.5 23.7  47d 178
2021 03 02 13  10 00 58.664   +11 23 43.51  .03952 1.0296 166.4 23.7  47d 178
2021 03 02 14  10 00 58.669   +11 24 10.29  .03961 1.0297 166.4 23.8  47d 178
2021 03 02 15  10 00 58.679   +11 24 36.94  .03970 1.0298 166.3 23.8  47d 178
2021 03 02 16  10 00 58.691   +11 25 03.45  .03979 1.0299 166.3 23.8  47d 178
2021 03 02 17  10 00 58.708   +11 25 29.83  .03987 1.0300 166.3 23.8  47d 178
2021 03 02 18  10 00 58.728   +11 25 56.07  .03996 1.0300 166.2 23.8  47d 178
2021 03 02 19  10 00 58.751   +11 26 22.18  .04005 1.0301 166.2 23.8  47d 178
2021 03 02 20  10 00 58.778   +11 26 48.16  .04014 1.0302 166.1 23.8  47d 178
2021 03 02 21  10 00 58.808   +11 27 14.01  .04023 1.0303 166.1 23.8  47d 178
2021 03 02 22  10 00 58.842   +11 27 39.73  .04032 1.0304 166.0 23.8  47d 178
2021 03 02 23  10 00 58.880   +11 28 05.31  .04041 1.0305 166.0 23.8  47d 178
2021 03 03 00  10 00 58.921   +11 28 30.77  .04049 1.0306 166.0 23.8  47d 178
2021 03 03 01  10 00 58.965   +11 28 56.09  .04058 1.0307 165.9 23.8  47d 178
2021 03 03 02  10 00 59.013   +11 29 21.29  .04067 1.0308 165.9 23.8  47d 178
2021 03 03 03  10 00 59.064   +11 29 46.37  .04076 1.0308 165.8 23.8  47d 178
2021 03 03 04  10 00 59.119   +11 30 11.31  .04085 1.0309 165.8 23.8  47d 178
2021 03 03 05  10 00 59.177   +11 30 36.13  .04094 1.0310 165.7 23.9  47d 178
2021 03 03 06  10 00 59.239   +11 31 00.83  .04103 1.0311 165.7 23.9  47d 178
2021 03 03 07  10 00 59.304   +11 31 25.40  .04111 1.0312 165.6 23.9  47d 178
2021 03 03 08  10 00 59.373   +11 31 49.84  .04120 1.0313 165.6 23.9  47d 178
2021 03 03 09  10 00 59.445   +11 32 14.16  .04129 1.0314 165.6 23.9  47d 178
2021 03 03 10  10 00 59.521   +11 32 38.36  .04138 1.0315 165.5 23.9  47d 178
2021 03 03 11  10 00 59.600   +11 33 02.44  .04147 1.0316 165.5 23.9  47d 178
2021 03 03 12  10 00 59.682   +11 33 26.40  .04156 1.0317 165.4 23.9  47d 178
2021 03 03 13  10 00 59.768   +11 33 50.23  .04165 1.0317 165.4 23.9  47d 178
2021 03 03 14  10 00 59.857   +11 34 13.94  .04174 1.0318 165.3 23.9  47d 178